Tracking 20621 objects as of 1-Apr-2020
HD Live streaming from Space Station
objects crossing your sky now

DMSP 5D-2 F11 DEB

Track DMSP 5D-2 F11 DEB now!
10-day predictions


NORAD ID: 28332
Int'l Code: 1991-082AV
Perigee: 527.0 km
Apogee: 546.5 km
Inclination: 98.7 °
Period: 95.2 minutes
Semi major axis: 6907 km
RCS: 0.0108 m2 (small)
Launch date: November 28, 1991
Source: United States (US)
Launch site: AIR FORCE WESTERN TEST RANGE (AFWTR)

Note: This is SATELLITE DEBRIS
aabbcc
Your satellite tracking list
Your tracking list is empty




NASA's NSSDC Master Catalog

Two Line Element Set (TLE):
1 28332U 91082AV  20090.88792780 +.00021169 +00000-0 +12261-2 0  9991
2 28332 098.7405 330.5483 0014118 341.9271 018.1452 15.12170306835587
Source of the keplerian elements: AFSPC